Location: Morosaglia
(42.4360°N, 9.3069°E)
Time: 03:44:23
(UTC+00:00)

IRS-1D - Pass Details

Date: 07 June 2020
Orbit: 740 x 816 km, 98.6° (Epoch: 07 July)

Event Time Altitude Azimuth Distance (km) Brightness Sun altitude
Rises 01:07:16 0° 19° (NNE) 3,324 8.4 -20.4°
Reaches altitude 10° 01:09:43 10° 25° (NNE) 2,379 7.3 -20.2°
Maximum altitude 01:14:46 47° 99° (E) 1,042 4.3 -19.8°
Enters shadow 01:17:31 24° 160° (SSE) 1,554 4.7 -19.5°
